Location: Mentone
(34.5413°N, 85.5351°W)
Time: 16:10:02
(UTC-06:00)

A-11 Canister half - Visible Passes

Search period start: 05 February 2016 00:00
Search period end: 15 February 2016 00:00
Orbit: 1527 x 1682 km, 47.3° (Epoch: 03 February)

Date Brightness Start Highest point End Pass type
(mag) Time Alt. Az. Time Alt. Az. Time Alt. Az.
05 Feb 11.2 01:27:20 11° ENE 01:27:20 11° ENE 01:27:42 10° ENE visible
05 Feb 9.4 03:25:39 50° NNE 03:25:39 50° NNE 03:32:58 10° NE visible
05 Feb 9.7 05:23:56 17° WNW 05:30:26 37° N 05:39:05 10° ENE visible
06 Feb 9.7 03:05:14 43° NNE 03:05:14 43° NNE 03:11:23 10° NE visible
06 Feb 9.7 05:03:32 22° NW 05:08:46 38° N 05:17:25 10° ENE visible
07 Feb 10.0 02:44:48 35° NE 02:44:48 35° NE 02:49:48 10° NE visible
07 Feb 9.7 04:43:06 27° NW 04:47:07 38° N 04:55:44 10° ENE visible
08 Feb 10.3 02:24:21 28° NE 02:24:21 28° NE 02:28:14 10° NE visible
08 Feb 9.7 04:22:39 32° NW 04:25:27 38° N 04:34:04 10° ENE visible
09 Feb 10.6 02:03:53 22° NE 02:03:53 22° NE 02:06:39 10° NE visible
09 Feb 9.6 04:02:11 36° NNW 04:03:48 38° N 04:12:25 10° ENE visible
09 Feb 9.7 06:01:48 10° NW 06:10:45 47° NNE 06:19:53 10° E visible
10 Feb 10.9 01:43:24 17° NE 01:43:24 17° NE 01:45:05 10° NE visible
10 Feb 9.6 03:41:42 38° NNW 03:42:09 38° N 03:50:46 10° ENE visible
10 Feb 9.7 05:40:13 10° NW 05:49:07 46° NNE 05:58:12 10° E visible
11 Feb 11.1 01:22:54 12° NE 01:22:54 12° NE 01:23:31 10° NE visible
11 Feb 9.7 03:21:12 38° N 03:21:12 38° N 03:29:07 10° ENE visible
11 Feb 9.7 05:19:30 13° NW 05:27:29 45° NNE 05:36:29 10° E visible
12 Feb 9.9 03:00:42 36° NNE 03:00:42 36° NNE 03:07:29 10° ENE visible
12 Feb 9.7 04:59:00 17° NW 05:05:51 44° NNE 05:14:47 10° E visible
13 Feb 10.1 02:40:13 32° NNE 02:40:13 32° NNE 02:45:51 10° ENE visible
13 Feb 9.7 04:38:31 22° NW 04:44:12 43° NNE 04:53:05 10° E visible
14 Feb 10.3 02:19:44 28° NE 02:19:44 28° NE 02:24:13 10° ENE visible
14 Feb 9.7 04:18:02 27° NW 04:22:34 42° NNE 04:31:23 10° E visible
